Weather History for Spokane, WA

Change the Weather History Date:

Friday, June 27, 2014

  Actual Average Record
Temperature  
Mean Temperature 61 °F 65 °F  
Max Temperature 67 °F 77 °F 98 °F (1925)
Min Temperature 54 °F 53 °F 41 °F (1975)
Degree Days  
Heating Degree Days 4 3  
Month to date heating degree days 97 128  
Since 1 June heating degree days 97 128  
Since 1 July heating degree days 6684 6585  
Cooling Degree Days 0 3  
Month to date cooling degree days 14 40  
Year to date cooling degree days 20 54  
Since 1 June cooling degree days 14 40  
Growing Degree Days 10 (Base 50)    
Moisture  
Dew Point 52 °F    
Average Humidity 75    
Maximum Humidity 93    
Minimum Humidity 56    
Precipitation  
Precipitation 0.47 in 0.03 in 0.51 in (1906)
Month to date precipitation 1.84 1.17  
Year to date precipitation 9.24 8.80  
Snow  
Snow 0.00 in 0.00 in T in (1952)
Month to date snowfall 0.0 0.0  
Since 1 June snowfall 0.0 0.0  
Since 1 July snowfall 37.6 44.9  
Snow Depth 0.00 in    
Sea Level Pressure  
Sea Level Pressure 29.77 in    
Wind  
Wind Speed 10 mph (South)    
Max Wind Speed 21 mph    
Max Gust Speed 24 mph    
Visibility 10 miles    
Events Rain , Thunderstorm    
T = Trace of Precipitation, MM = Missing Value Source: NWS Daily Summary

Daily Weather History Graph

Daily Weather History Graph

Search for Another Location

Airport:

Trip Planner

Search our weather history database for the weather conditions in past years. The results will help you decide how hot, cold, wet, or windy it might be!

Date:

Astronomy

Jun. 27, 2014 Rise Set
Actual Time 4:54 AM PDT 8:51 PM PDT
Civil Twilight 4:13 AM PDT 9:32 PM PDT
Nautical Twilight 3:17 AM PDT 10:28 PM PDT
Astronomical Twilight 1:47 AM PDT 11:57 PM PDT
Moon 5:36 AM PDT (6/27) 8:51 PM PDT (6/27)
Length of Visible Light 17h 18m
Length of Day
15h 57m
New Moon, 0% of the Moon is Illuminated
Jun 27
New Moon
Jul 5
First Quarter
Jul 12
Full
Jul 18
Last Quarter
Jul 26
New

Hourly Weather History & Observations

Time (PDT) Temp. Dew Point Humidity Pressure Visibility Wind Dir Wind Speed Gust Speed Precip Events Conditions
12:53 AM 57.0 °F 54.0 °F 89% 29.74 in 10.0 mi South 4.6 mph - N/A   Overcast
1:53 AM 57.0 °F 54.0 °F 89% 29.74 in 10.0 mi SSE 9.2 mph - N/A   Overcast
2:53 AM 57.0 °F 54.0 °F 89% 29.74 in 10.0 mi SSE 6.9 mph - 0.00 in   Overcast
3:53 AM 57.0 °F 53.1 °F 87% 29.73 in 10.0 mi SSE 8.1 mph - N/A   Overcast
4:53 AM 55.0 °F 52.0 °F 89% 29.75 in 5.0 mi South 10.4 mph - 0.10 in Rain Rain
5:53 AM 54.0 °F 52.0 °F 93% 29.76 in 7.0 mi South 12.7 mph - 0.20 in Rain Light Rain
6:53 AM 55.9 °F 51.1 °F 84% 29.76 in 10.0 mi SSW 15.0 mph - 0.00 in   Overcast
7:53 AM 55.0 °F 50.0 °F 83% 29.78 in 10.0 mi SSW 15.0 mph - N/A   Overcast
8:03 AM 55.9 °F 50.0 °F 80% 29.80 in 10.0 mi SSW 13.8 mph - N/A   Overcast
8:24 AM 55.9 °F 50.0 °F 80% 29.80 in 10.0 mi SSW 15.0 mph - N/A   Overcast
8:53 AM 55.9 °F 48.9 °F 77% 29.80 in 10.0 mi SW 18.4 mph - N/A   Overcast
9:53 AM 55.0 °F 50.0 °F 83% 29.80 in 10.0 mi South 6.9 mph - 0.01 in Rain Light Rain
10:53 AM 57.2 °F 50.0 °F 77% 29.81 in 10.0 mi South 12.7 mph - N/A   Overcast
11:53 AM 60.1 °F 48.9 °F 67% 29.80 in 10.0 mi SSW 16.1 mph 21.9 mph N/A   Overcast
12:53 PM 62.1 °F 50.0 °F 65% 29.80 in 10.0 mi SSW 11.5 mph - N/A   Mostly Cloudy
1:53 PM 63.0 °F 50.0 °F 63% 29.79 in 10.0 mi SSW 12.7 mph - N/A   Overcast
2:53 PM 64.0 °F 50.0 °F 60% 29.79 in 10.0 mi South 8.1 mph - N/A   Mostly Cloudy
3:53 PM 66.0 °F 50.0 °F 56% 29.78 in 10.0 mi South 6.9 mph - N/A   Mostly Cloudy
4:53 PM 66.0 °F 50.0 °F 56% 29.77 in 10.0 mi SE 10.4 mph - N/A   Mostly Cloudy
5:53 PM 64.0 °F 50.0 °F 60% 29.76 in 8.0 mi SSE 8.1 mph - 0.00 in Rain Light Rain
6:53 PM 64.0 °F 54.0 °F 70% 29.75 in 10.0 mi ESE 10.4 mph - 0.02 in   Mostly Cloudy
7:19 PM 63.0 °F 54.0 °F 72% 29.77 in 10.0 mi SE 8.1 mph - 0.00 in Thunderstorm Thunderstorm
7:53 PM 63.0 °F 54.0 °F 72% 29.74 in 10.0 mi South 6.9 mph - 0.00 in Rain , Thunderstorm Light Rain
8:28 PM 63.0 °F 54.0 °F 72% 29.77 in 10.0 mi SSE 11.5 mph 16.1 mph 0.00 in   Mostly Cloudy
8:53 PM 59.0 °F 52.0 °F 78% 29.76 in 10.0 mi South 6.9 mph - 0.00 in   Mostly Cloudy
9:53 PM 57.9 °F 52.0 °F 81% 29.78 in 8.0 mi East 3.5 mph - 0.00 in Rain Light Rain
10:31 PM 57.0 °F 53.1 °F 87% 29.79 in 10.0 mi Calm Calm - 0.14 in Rain , Thunderstorm Light Rain
10:53 PM 57.2 °F 53.6 °F 88% 29.80 in 10.0 mi NNE 8.1 mph - N/A   Mostly Cloudy
11:28 PM 57.0 °F 54.0 °F 89% 29.79 in 10.0 mi ESE 5.8 mph - 0.00 in Thunderstorm Overcast
11:53 PM 55.9 °F 54.0 °F 93% 29.77 in 10.0 mi SE 4.6 mph - 0.00 in   Mostly Cloudy